219P/LINEAR (2024)

Japanese version
Home page
Updated on October 14, 2023

---------------------------------------------------------------------

* Profile

* Pictures

* Orbital Elements

Epoch 2023 Feb. 25.0 TT = JDT 2460000.5
T 2024 Feb. 13.67675 TT                                 Rudenko
q   2.3551835            (2000.0)            P               Q
n   0.14155095     Peri.  107.58072     +0.91566164     +0.37071302
a   3.6463711      Node   230.95189     -0.40049097     +0.87433867
e   0.3541021      Incl.   11.53944     +0.03421624     +0.31321518
P   6.96
>From 861 observations 2002 June 5-2023 May 30, mean residual 0".8.
     Nongravitational parameters A1 = +0.40, A2 = -0.1059.

* Finding Charts

* Magnitudes Graph

        m1 = 7.3 + 5 log d + 20 log r(t + 70)

---------------------------------------------------------------------

The orbital elements are published on M.P.E.C. 2023-L37.
The charts are made with StellaNavigator Ver.10 (AstroArts).
The magnitudes graphs are made with Comet for Windows.

---------------------------------------------------------------------

Copyright(C) Seiichi Yoshida (comet@aerith.net). All rights reserved.